Torna al catalogo

QIANFAN-137

AttivoComunicazioniPO
NORAD 69083·PAYLOAD·🇨🇳 China

Lanciato May 12, 2026 da Taiyuan Satellite Launch Center

Loading…

Prossimi Passaggi (prossime 24 ore)

TLE

AggiornatoSource: Space-Track

Epoca: Sep 14, 2026, 13:23 UTC

1 69083U 26104L   26257.55791922  .00000109  00000-0  15079-3 0  9996
2 69083  88.9921 332.2479 0002282 101.9524 258.1883 13.51021456 17282

Traccia QIANFAN-137 in tempo reale con AllMySat

Download on the App Store